User: anonymous
Location: Plymouth
(43.7570°N, 71.6890°W)
Time: 15:36:48
(UTC-04:00)
Language:

Cosmos 2016 Rocket - Orbit

View from above orbital plane
View from above orbital plane
View from above satellite
View from above satellite

Ground track
Ground track

The orbit data is extracted from the following two-line orbital elements,

1 19922U 89028B   14210.41764736  .00000057  00000-0  41919-4 0   593
2 19922 082.9611 128.4495 0035421 318.8597 178.5117 13.77107530272196
Epoch (UTC): 29 July 2014 10:01:24
Eccentricity: 0.0035421
inclination: 82.9611°
perigee height: 948 km
apogee height: 1000 km
right ascension of ascending node: 128.4495°
argument of perigee: 318.8597°
revolutions per day: 13.77107530
mean anomaly at epoch: 178.5117°
orbit number at epoch: 27219

The dashed part of the orbit path shows where the satellite is in the earth's shadow,  

DLR